Time,TemperatureF,DewpointF,PressureIn,WindDirection,WindDirectionDegrees,WindSpeedMPH,WindSpeedGustMPH,Humidity,HourlyPrecipIn,Conditions,Clouds,dailyrainin,SoftwareType,DateUTC
2013-08-07 00:02:00,78.0,58.0,29.75,WNW,283,1.0,14.0,50,0.00,,,0.00,,2013-08-07 06:02:00,
2013-08-07 00:11:00,78.0,58.0,29.75,West,277,0.0,9.0,50,0.00,,,0.00,,2013-08-07 06:11:00,
2013-08-07 00:22:00,78.0,58.0,29.75,West,277,0.0,9.0,50,0.00,,,0.00,,2013-08-07 06:22:00,
2013-08-07 00:32:00,77.0,57.0,29.75,West,271,0.0,6.0,51,0.00,,,0.00,,2013-08-07 06:32:00,
2013-08-07 00:43:00,77.0,58.0,29.76,West,269,0.0,1.0,52,0.00,,,0.00,,2013-08-07 06:43:00,
2013-08-07 00:52:00,77.0,58.0,29.76,West,269,0.0,1.0,52,0.00,,,0.00,,2013-08-07 06:52:00,
2013-08-07 01:01:00,76.0,58.0,29.76,West,269,0.0,0.0,53,0.00,,,0.00,,2013-08-07 07:01:00,
2013-08-07 01:12:00,76.0,58.0,29.76,West,272,0.0,5.0,53,0.00,,,0.00,,2013-08-07 07:12:00,
2013-08-07 01:21:00,76.0,58.0,29.76,West,272,0.0,5.0,53,0.00,,,0.00,,2013-08-07 07:21:00,
2013-08-07 01:33:00,77.0,58.0,29.76,WNW,293,0.0,4.0,52,0.00,,,0.00,,2013-08-07 07:33:00,
2013-08-07 01:43:00,77.0,58.0,29.76,WNW,286,0.0,6.0,52,0.00,,,0.00,,2013-08-07 07:43:00,
2013-08-07 01:52:00,77.0,58.0,29.76,WNW,286,0.0,6.0,52,0.00,,,0.00,,2013-08-07 07:52:00,
2013-08-07 02:01:00,76.0,57.0,29.76,West,263,0.0,6.0,52,0.00,,,0.00,,2013-08-07 08:01:00,
2013-08-07 02:11:00,76.0,58.0,29.75,West,274,1.0,6.0,53,0.00,,,0.00,,2013-08-07 08:11:00,
2013-08-07 02:22:00,76.0,58.0,29.75,West,274,1.0,6.0,53,0.00,,,0.00,,2013-08-07 08:22:00,
2013-08-07 02:32:00,76.0,58.0,29.75,West,267,0.0,6.0,54,0.00,,,0.00,,2013-08-07 08:32:00,
2013-08-07 02:44:00,75.0,57.0,29.75,NNW,336,0.0,3.0,54,0.00,,,0.00,,2013-08-07 08:44:00,
2013-08-07 02:52:00,75.0,57.0,29.75,NNW,336,0.0,3.0,54,0.00,,,0.00,,2013-08-07 08:52:00,
2013-08-07 03:01:00,75.0,58.0,29.75,NNW,336,0.0,1.0,55,0.00,,,0.00,,2013-08-07 09:01:00,
2013-08-07 03:11:00,75.0,58.0,29.75,NNW,335,0.0,1.0,56,0.00,,,0.00,,2013-08-07 09:11:00,
2013-08-07 03:22:00,75.0,58.0,29.75,NNW,335,0.0,1.0,56,0.00,,,0.00,,2013-08-07 09:22:00,
2013-08-07 03:32:00,74.0,58.0,29.75,NNW,338,0.0,0.0,57,0.00,,,0.00,,2013-08-07 09:32:00,
2013-08-07 03:43:00,73.0,58.0,29.76,NNW,338,0.0,0.0,59,0.00,,,0.00,,2013-08-07 09:43:00,
2013-08-07 03:54:00,73.0,58.0,29.76,NNW,338,0.0,0.0,59,0.00,,,0.00,,2013-08-07 09:54:00,
2013-08-07 04:01:00,72.0,59.0,29.76,NNW,338,0.0,1.0,63,0.00,,,0.00,,2013-08-07 10:01:00,
2013-08-07 04:11:00,71.0,59.0,29.76,NNW,337,0.0,1.0,65,0.00,,,0.00,,2013-08-07 10:11:00,
2013-08-07 04:21:00,71.0,59.0,29.76,NNW,337,0.0,1.0,65,0.00,,,0.00,,2013-08-07 10:21:00,
2013-08-07 04:32:00,71.0,58.0,29.75,NNW,337,0.0,1.0,64,0.00,,,0.00,,2013-08-07 10:32:00,
2013-08-07 04:43:00,71.0,59.0,29.75,NW,325,0.0,2.0,66,0.00,,,0.00,,2013-08-07 10:43:00,
2013-08-07 04:52:00,71.0,59.0,29.75,NW,325,0.0,2.0,66,0.00,,,0.00,,2013-08-07 10:52:00,
2013-08-07 05:01:00,71.0,59.0,29.75,NW,323,0.0,1.0,66,0.00,,,0.00,,2013-08-07 11:01:00,
2013-08-07 05:11:00,70.0,58.0,29.76,NW,324,0.0,1.0,66,0.00,,,0.00,,2013-08-07 11:11:00,
2013-08-07 05:22:00,70.0,58.0,29.76,NW,324,0.0,1.0,66,0.00,,,0.00,,2013-08-07 11:22:00,
2013-08-07 05:32:00,70.0,58.0,29.76,NW,323,0.0,1.0,66,0.00,,,0.00,,2013-08-07 11:32:00,
2013-08-07 05:43:00,69.0,58.0,29.77,NW,323,0.0,0.0,68,0.00,,,0.00,,2013-08-07 11:43:00,
2013-08-07 05:52:00,69.0,58.0,29.77,NW,323,0.0,0.0,68,0.00,,,0.00,,2013-08-07 11:52:00,
2013-08-07 06:02:00,68.0,58.0,29.78,NW,323,0.0,0.0,70,0.00,,,0.00,,2013-08-07 12:02:00,
2013-08-07 06:11:00,68.0,58.0,29.78,NW,323,0.0,0.0,70,0.00,,,0.00,,2013-08-07 12:11:00,
2013-08-07 06:22:00,67.0,57.0,29.78,NW,324,0.0,0.0,71,0.00,,,0.00,,2013-08-07 12:22:00,
2013-08-07 06:32:00,67.0,57.0,29.78,NW,324,0.0,0.0,71,0.00,,,0.00,,2013-08-07 12:32:00,
2013-08-07 06:43:00,67.0,58.0,29.78,NW,324,0.0,1.0,72,0.00,,,0.00,,2013-08-07 12:43:00,
2013-08-07 07:02:00,67.0,58.0,29.79,NW,323,0.0,2.0,72,0.00,,,0.00,,2013-08-07 13:02:00,
2013-08-07 07:11:00,67.0,58.0,29.79,NW,323,0.0,2.0,72,0.00,,,0.00,,2013-08-07 13:11:00,
2013-08-07 07:22:00,68.0,58.0,29.79,NW,323,0.0,1.0,71,0.00,,,0.00,,2013-08-07 13:22:00,
2013-08-07 07:32:00,68.0,59.0,29.80,NW,323,0.0,0.0,72,0.00,,,0.00,,2013-08-07 13:32:00,
2013-08-07 07:44:00,68.0,59.0,29.80,NW,323,0.0,0.0,72,0.00,,,0.00,,2013-08-07 13:44:00,
2013-08-07 07:53:00,69.0,59.0,29.80,NW,321,0.0,4.0,70,0.00,,,0.00,,2013-08-07 13:53:00,
2013-08-07 08:02:00,71.0,59.0,29.80,NW,317,0.0,4.0,67,0.00,,,0.00,,2013-08-07 14:02:00,
2013-08-07 08:11:00,71.0,59.0,29.80,NW,317,0.0,4.0,67,0.00,,,0.00,,2013-08-07 14:11:00,
2013-08-07 08:22:00,72.0,60.0,29.80,NW,311,0.0,4.0,65,0.00,,,0.00,,2013-08-07 14:22:00,
2013-08-07 08:33:00,73.0,59.0,29.81,NW,306,0.0,4.0,62,0.00,,,0.00,,2013-08-07 14:33:00,
2013-08-07 08:43:00,73.0,59.0,29.81,NW,306,0.0,4.0,62,0.00,,,0.00,,2013-08-07 14:43:00,
2013-08-07 08:52:00,74.0,59.0,29.81,WNW,288,0.0,5.0,60,0.00,,,0.00,,2013-08-07 14:52:00,
2013-08-07 09:02:00,75.0,59.0,29.81,WSW,243,0.0,6.0,58,0.00,,,0.00,,2013-08-07 15:02:00,
2013-08-07 09:12:00,75.0,59.0,29.81,WSW,243,0.0,6.0,58,0.00,,,0.00,,2013-08-07 15:12:00,
2013-08-07 09:22:00,76.0,60.0,29.81,SW,228,4.0,7.0,57,0.00,,,0.00,,2013-08-07 15:22:00,
2013-08-07 09:33:00,76.0,59.0,29.82,West,269,2.0,7.0,55,0.00,,,0.00,,2013-08-07 15:33:00,
2013-08-07 09:43:00,76.0,59.0,29.82,West,269,2.0,7.0,55,0.00,,,0.00,,2013-08-07 15:43:00,
2013-08-07 09:53:00,77.0,59.0,29.81,WSW,250,3.0,9.0,54,0.00,,,0.00,,2013-08-07 15:53:00,
2013-08-07 10:02:00,78.0,59.0,29.80,WSW,256,1.0,7.0,53,0.00,,,0.00,,2013-08-07 16:02:00,
2013-08-07 10:11:00,78.0,59.0,29.80,WSW,256,1.0,7.0,53,0.00,,,0.00,,2013-08-07 16:11:00,
2013-08-07 10:22:00,79.0,59.0,29.80,West,262,4.0,9.0,51,0.00,,,0.00,,2013-08-07 16:22:00,
2013-08-07 10:33:00,80.0,59.0,29.80,WSW,239,3.0,10.0,49,0.00,,,0.00,,2013-08-07 16:33:00,
2013-08-07 10:43:00,80.0,59.0,29.80,WSW,239,3.0,10.0,49,0.00,,,0.00,,2013-08-07 16:43:00,
2013-08-07 10:53:00,80.0,59.0,29.80,SW,233,5.0,12.0,48,0.00,,,0.00,,2013-08-07 16:53:00,
2013-08-07 11:01:00,81.0,59.0,29.79,WNW,298,3.0,9.0,47,0.00,,,0.00,,2013-08-07 17:01:00,
2013-08-07 11:11:00,81.0,59.0,29.79,WNW,298,3.0,9.0,47,0.00,,,0.00,,2013-08-07 17:11:00,
2013-08-07 11:22:00,82.0,59.0,29.79,WSW,245,4.0,9.0,45,0.00,,,0.00,,2013-08-07 17:22:00,
2013-08-07 11:33:00,82.0,58.0,29.78,SW,224,6.0,12.0,44,0.00,,,0.00,,2013-08-07 17:33:00,
2013-08-07 11:43:00,82.0,58.0,29.78,SW,224,6.0,12.0,44,0.00,,,0.00,,2013-08-07 17:43:00,
2013-08-07 11:52:00,83.0,58.0,29.78,West,259,5.0,11.0,42,0.00,,,0.00,,2013-08-07 17:52:00,
2013-08-07 12:02:00,84.0,58.0,29.77,West,273,4.0,14.0,42,0.00,,,0.00,,2013-08-07 18:02:00,
2013-08-07 12:11:00,84.0,58.0,29.77,West,273,4.0,14.0,42,0.00,,,0.00,,2013-08-07 18:11:00,
2013-08-07 12:22:00,84.0,58.0,29.76,SW,219,1.0,11.0,41,0.00,,,0.00,,2013-08-07 18:22:00,
2013-08-07 12:32:00,85.0,58.0,29.76,SW,217,5.0,11.0,40,0.00,,,0.00,,2013-08-07 18:32:00,
2013-08-07 12:43:00,85.0,58.0,29.76,SW,217,5.0,11.0,40,0.00,,,0.00,,2013-08-07 18:43:00,
2013-08-07 12:52:00,85.0,58.0,29.76,WSW,249,6.0,13.0,40,0.00,,,0.00,,2013-08-07 18:52:00,
2013-08-07 13:01:00,86.0,57.0,29.75,SW,234,7.0,13.0,38,0.00,,,0.00,,2013-08-07 19:01:00,
2013-08-07 13:11:00,86.0,57.0,29.75,SW,234,7.0,13.0,38,0.00,,,0.00,,2013-08-07 19:11:00,
2013-08-07 13:22:00,86.0,57.0,29.75,WSW,246,4.0,13.0,38,0.00,,,0.00,,2013-08-07 19:22:00,
2013-08-07 13:32:00,87.0,58.0,29.75,SW,222,4.0,12.0,37,0.00,,,0.00,,2013-08-07 19:32:00,
2013-08-07 13:44:00,87.0,58.0,29.75,SW,222,4.0,12.0,37,0.00,,,0.00,,2013-08-07 19:44:00,
2013-08-07 13:52:00,87.0,58.0,29.74,SW,229,4.0,11.0,38,0.00,,,0.00,,2013-08-07 19:52:00,
2013-08-07 14:02:00,88.0,58.0,29.74,West,259,1.0,9.0,36,0.00,,,0.00,,2013-08-07 20:02:00,
2013-08-07 14:11:00,88.0,58.0,29.74,West,259,1.0,9.0,36,0.00,,,0.00,,2013-08-07 20:11:00,
2013-08-07 14:22:00,88.0,58.0,29.73,West,259,2.0,12.0,36,0.00,,,0.00,,2013-08-07 20:22:00,
2013-08-07 14:32:00,89.0,57.0,29.72,WSW,256,3.0,10.0,34,0.00,,,0.00,,2013-08-07 20:32:00,
2013-08-07 14:43:00,89.0,57.0,29.72,WSW,256,3.0,10.0,34,0.00,,,0.00,,2013-08-07 20:43:00,
2013-08-07 14:52:00,89.0,57.0,29.72,SW,233,3.0,13.0,34,0.00,,,0.00,,2013-08-07 20:52:00,
2013-08-07 15:01:00,89.0,58.0,29.71,WSW,253,6.0,12.0,35,0.00,,,0.00,,2013-08-07 21:01:00,
2013-08-07 15:11:00,89.0,58.0,29.71,WSW,253,6.0,12.0,35,0.00,,,0.00,,2013-08-07 21:11:00,
2013-08-07 15:22:00,90.0,57.0,29.71,SW,231,3.0,8.0,33,0.00,,,0.00,,2013-08-07 21:22:00,
2013-08-07 15:32:00,89.0,58.0,29.70,SW,218,1.0,10.0,35,0.00,,,0.00,,2013-08-07 21:32:00,
2013-08-07 15:43:00,89.0,58.0,29.70,SW,218,1.0,10.0,35,0.00,,,0.00,,2013-08-07 21:43:00,
2013-08-07 15:52:00,91.0,58.0,29.70,West,259,1.0,9.0,33,0.00,,,0.00,,2013-08-07 21:52:00,
2013-08-07 16:01:00,90.0,58.0,29.69,SW,222,4.0,10.0,34,0.00,,,0.00,,2013-08-07 22:01:00,
2013-08-07 16:12:00,90.0,58.0,29.69,SW,222,4.0,10.0,34,0.00,,,0.00,,2013-08-07 22:12:00,
2013-08-07 16:22:00,89.0,56.0,29.67,SW,224,2.0,10.0,33,0.00,,,0.00,,2013-08-07 22:22:00,
2013-08-07 16:32:00,91.0,57.0,29.67,SW,226,6.0,12.0,32,0.00,,,0.00,,2013-08-07 22:32:00,
2013-08-07 16:43:00,91.0,57.0,29.67,SW,226,6.0,12.0,32,0.00,,,0.00,,2013-08-07 22:43:00,
2013-08-07 16:52:00,90.0,57.0,29.66,SW,214,4.0,14.0,33,0.00,,,0.00,,2013-08-07 22:52:00,
2013-08-07 17:01:00,90.0,56.0,29.66,WSW,255,3.0,10.0,32,0.00,,,0.00,,2013-08-07 23:01:00,
2013-08-07 17:11:00,90.0,56.0,29.66,WSW,255,3.0,10.0,32,0.00,,,0.00,,2013-08-07 23:11:00,
2013-08-07 17:22:00,91.0,56.0,29.66,SSW,196,5.0,9.0,31,0.00,,,0.00,,2013-08-07 23:22:00,
2013-08-07 17:32:00,89.0,54.0,29.66,WSW,251,2.0,10.0,31,0.00,,,0.00,,2013-08-07 23:32:00,
2013-08-07 17:43:00,89.0,54.0,29.66,WSW,251,2.0,10.0,31,0.00,,,0.00,,2013-08-07 23:43:00,
2013-08-07 17:52:00,90.0,57.0,29.65,WSW,240,1.0,11.0,33,0.00,,,0.00,,2013-08-07 23:52:00,
2013-08-07 18:01:00,90.0,57.0,29.65,SW,217,2.0,10.0,33,0.00,,,0.00,,2013-08-08 00:01:00,
2013-08-07 18:11:00,90.0,57.0,29.65,SW,217,2.0,10.0,33,0.00,,,0.00,,2013-08-08 00:11:00,
2013-08-07 18:22:00,88.0,56.0,29.65,WNW,282,2.0,9.0,34,0.00,,,0.00,,2013-08-08 00:22:00,
2013-08-07 18:32:00,87.0,55.0,29.65,West,281,5.0,13.0,34,0.00,,,0.00,,2013-08-08 00:32:00,
2013-08-07 18:42:00,87.0,55.0,29.65,West,281,5.0,13.0,34,0.00,,,0.00,,2013-08-08 00:42:00,
2013-08-07 18:52:00,86.0,58.0,29.66,WNW,287,5.0,11.0,39,0.00,,,0.00,,2013-08-08 00:52:00,
2013-08-07 19:02:00,86.0,58.0,29.66,WNW,287,5.0,11.0,39,0.00,,,0.00,,2013-08-08 01:02:00,
2013-08-07 19:11:00,84.0,58.0,29.67,North,359,3.0,11.0,42,0.00,,,0.00,,2013-08-08 01:11:00,
2013-08-07 19:22:00,84.0,58.0,29.67,North,359,3.0,11.0,42,0.00,,,0.00,,2013-08-08 01:22:00,
2013-08-07 19:32:00,82.0,58.0,29.67,North,360,2.0,7.0,44,0.00,,,0.00,,2013-08-08 01:32:00,
2013-08-07 19:43:00,81.0,58.0,29.68,North,356,1.0,7.0,46,0.00,,,0.00,,2013-08-08 01:43:00,
2013-08-07 19:52:00,81.0,58.0,29.68,North,356,1.0,7.0,46,0.00,,,0.00,,2013-08-08 01:52:00,
2013-08-07 20:02:00,76.0,64.0,29.69,North,1,0.0,1.0,66,0.06,,,0.06,,2013-08-08 02:02:00,
2013-08-07 20:11:00,76.0,64.0,29.69,North,1,0.0,1.0,66,0.06,,,0.06,,2013-08-08 02:11:00,
2013-08-07 20:22:00,76.0,62.0,29.70,NNE,17,0.0,1.0,62,0.06,,,0.06,,2013-08-08 02:22:00,
2013-08-07 20:32:00,77.0,62.0,29.70,NNE,18,0.0,1.0,59,0.06,,,0.06,,2013-08-08 02:32:00,
2013-08-07 20:42:00,77.0,62.0,29.70,NNE,18,0.0,1.0,59,0.06,,,0.06,,2013-08-08 02:42:00,
2013-08-07 20:52:00,76.0,62.0,29.70,NNE,16,0.0,2.0,62,0.01,,,0.06,,2013-08-08 02:52:00,
2013-08-07 21:01:00,75.0,61.0,29.71,NNE,15,0.0,1.0,61,0.00,,,0.06,,2013-08-08 03:01:00,
2013-08-07 21:12:00,75.0,61.0,29.71,NNE,15,0.0,1.0,61,0.00,,,0.06,,2013-08-08 03:12:00,
2013-08-07 21:22:00,76.0,62.0,29.72,NNE,15,0.0,1.0,62,0.00,,,0.06,,2013-08-08 03:22:00,
2013-08-07 21:32:00,75.0,65.0,29.72,NNE,15,0.0,0.0,72,0.00,,,0.06,,2013-08-08 03:32:00,
2013-08-07 21:43:00,75.0,65.0,29.72,NNE,15,0.0,0.0,72,0.00,,,0.06,,2013-08-08 03:43:00,
2013-08-07 21:52:00,73.0,64.0,29.73,NNE,15,0.0,0.0,74,0.00,,,0.06,,2013-08-08 03:52:00,
2013-08-07 22:01:00,73.0,66.0,29.72,NNE,15,0.0,0.0,78,0.00,,,0.06,,2013-08-08 04:01:00,
2013-08-07 22:11:00,73.0,66.0,29.72,NNE,15,0.0,0.0,78,0.00,,,0.06,,2013-08-08 04:11:00,
2013-08-07 22:22:00,73.0,66.0,29.73,NNE,16,0.0,0.0,80,0.00,,,0.06,,2013-08-08 04:22:00,
2013-08-07 22:33:00,73.0,66.0,29.73,NNE,16,0.0,0.0,80,0.00,,,0.06,,2013-08-08 04:33:00,
2013-08-07 22:43:00,73.0,66.0,29.72,NNE,16,0.0,0.0,78,0.00,,,0.06,,2013-08-08 04:43:00,
2013-08-07 22:53:00,73.0,64.0,29.73,NNE,16,0.0,1.0,74,0.00,,,0.06,,2013-08-08 04:53:00,
2013-08-07 23:02:00,73.0,64.0,29.73,NNE,16,0.0,0.0,73,0.00,,,0.06,,2013-08-08 05:02:00,
2013-08-07 23:11:00,73.0,64.0,29.73,NNE,16,0.0,0.0,73,0.00,,,0.06,,2013-08-08 05:11:00,
2013-08-07 23:22:00,74.0,61.0,29.73,NNE,15,0.0,1.0,64,0.00,,,0.06,,2013-08-08 05:22:00,
2013-08-07 23:33:00,74.0,60.0,29.74,NNE,18,0.0,4.0,61,0.00,,,0.06,,2013-08-08 05:33:00,
2013-08-07 23:43:00,74.0,60.0,29.74,NNE,18,0.0,4.0,61,0.00,,,0.06,,2013-08-08 05:43:00,
2013-08-07 23:52:00,74.0,60.0,29.73,NNE,18,0.0,1.0,61,0.00,,,0.06,,2013-08-08 05:52:00,